Flag for Vietnam Weather past 2 weeks in Hanoi, Vietnam

Now
81 °F

Clear.


Feels Like: 84 °F
Forecast: 72 / 75 °F
Wind: 10 mph from Southeast

Location: Ha Noi Airport

Current Time: Apr 21, 2015 at 9:45:01 PM

Latest Report: Apr 21, 2015 at 9:00 PM


Visibility: 5 mi

Pressure: 29.92 "Hg

Humidity: 70%

Dew point: 70 °F

Location of HanoiLocation

Historic Weather in Hanoi — Graph

°F

Hanoi temperature yesterday

Maximum temperature yesterday: 95 °F (at 2:30 PM)
Minimum temperature yesterday: 79 °F (at 12:30 AM)
Average temperature yesterday: 85 °F

Past Weeks' High & Low Weather Summary

 TemperatureHumidityPressure
High95 °F (Apr 20, 2:30 PM)100% (Apr 7, 10:00 AM)30.21 "Hg (Apr 7, 10:00 AM)
Low61 °F (Apr 10, 1:30 AM)20% (Apr 13, 2:30 PM)29.59 "Hg (Apr 18, 3:30 PM)
Average75 °F75%29.92 "Hg
* Reported Apr 6 9:00 PM — Apr 21 9:00 PM, Hanoi, Weather by CustomWeather, © 2015

Note: Actual official high and low records may vary slightly from our data, if they occured in-between our weather recording intervals... More about our weather records

Advertising

Hanoi weather history for previous 24 hours

 ConditionsComfort  
Time TempWeatherWind HumidityBarometerVisibility
9:00 PM
Tue, Apr 21
81 °FClear.10 mph70%29.92 "Hg5 mi
8:30 PM81 °FClear.10 mph70%29.89 "Hg5 mi
8:00 PM82 °FClear.3 mph51%29.89 "Hg10 mi
7:30 PM82 °FClear.5 mph55%29.86 "Hg10 mi
7:00 PM82 °FClear.5 mph55%29.83 "Hg10 mi
6:30 PM82 °FPassing clouds.5 mph51%29.83 "HgN/A
6:00 PM82 °FPassing clouds.5 mph51%29.80 "HgN/A
5:30 PM82 °FPassing clouds.6 mph51%29.80 "HgN/A
5:00 PM82 °FPassing clouds.8 mph55%29.80 "HgN/A
4:30 PM82 °FPassing clouds.7 mph55%29.80 "HgN/A
4:00 PM84 °FPassing clouds.7 mph51%29.80 "HgN/A
3:30 PM84 °FPassing clouds.7 mph48%29.83 "HgN/A
3:00 PM84 °FPassing clouds.8 mph48%29.83 "HgN/A
2:30 PM84 °FPassing clouds.9 mph45%29.83 "HgN/A
2:00 PM84 °FSunny.8 mph48%29.83 "Hg10 mi
1:30 PM84 °FSunny.8 mph45%29.86 "Hg10 mi
1:00 PM82 °FSunny.9 mph48%29.86 "Hg10 mi
12:30 PM82 °FSunny.9 mph48%29.89 "Hg10 mi
12:00 PM82 °FSunny.10 mph48%29.89 "Hg10 mi
11:30 AM81 °FPassing clouds.12 mph48%29.92 "HgN/A
11:00 AM81 °FPartly sunny.10 mph48%29.92 "HgN/A
10:30 AM79 °FPartly sunny.12 mph51%29.92 "HgN/A
10:00 AM79 °FPartly sunny.9 mph54%29.95 "HgN/A
9:30 AM79 °FPartly sunny.10 mph54%29.95 "HgN/A
9:00 AM79 °FPartly sunny.13 mph51%29.95 "HgN/A
8:30 AM79 °FSunny.12 mph51%29.92 "Hg10 mi
8:00 AM77 °FSunny.13 mph54%29.89 "Hg10 mi
7:30 AM77 °FSunny.10 mph57%29.92 "Hg10 mi
7:00 AM77 °FSunny.13 mph61%29.89 "Hg10 mi
6:30 AM77 °FSunny.12 mph61%29.86 "Hg10 mi
6:00 AM75 °FPassing clouds.9 mph69%29.86 "HgN/A
5:30 AM75 °FClear.9 mph69%29.83 "Hg10 mi
5:00 AM77 °FClear.9 mph61%29.83 "Hg10 mi
4:30 AM77 °FClear.9 mph65%29.83 "Hg10 mi
4:00 AM77 °FClear.8 mph69%29.80 "Hg10 mi
3:30 AM77 °FClear.8 mph69%29.80 "Hg10 mi
3:00 AM79 °FClear.9 mph61%29.80 "Hg10 mi
2:30 AM79 °FPassing clouds.9 mph65%29.80 "HgN/A
2:00 AM79 °FPassing clouds.8 mph70%29.80 "HgN/A
1:30 AM79 °FClear.10 mph70%29.77 "Hg10 mi
1:00 AM81 °FClear.9 mph66%29.80 "Hg10 mi
12:00 AM81 °FClear.10 mph70%29.80 "Hg10 mi
11:30 PM
Mon, Apr 20
81 °FClear.12 mph66%29.80 "Hg10 mi
11:00 PM81 °FPassing clouds.10 mph74%29.77 "Hg4 mi
10:30 PM81 °FPassing clouds.9 mph79%29.77 "Hg5 mi
10:00 PM82 °FPassing clouds.7 mph70%29.77 "Hg6 mi
9:30 PM82 °FClear.9 mph74%29.77 "Hg5 mi
9:00 PM84 °FClear.14 mph62%29.74 "Hg10 mi
Weather by CustomWeather, © 2015

See weather overviewHow to use our weather pages